Date,TemperatureHighF,TemperatureAvgF,TemperatureLowF,DewpointHighF,DewpointAvgF,DewpointLowF,HumidityHigh,HumidityAvg,HumidityLow,PressureMaxIn,PressureMinIn,WindSpeedMaxMPH,WindSpeedAvgMPH,GustSpeedMaxMPH,PrecipitationSumIn
2013-1-1,32.4,30.8,29.6,27.0,24.3,21.9,86,77,69,30.70,30.60,5,1,11,0.00
2013-1-2,33.2,31.9,30.6,26.7,25.1,23.2,80,76,71,30.69,30.56,6,2,10,0.00
2013-1-3,33.7,31.1,27.9,25.0,22.5,19.5,77,70,63,30.55,30.43,6,2,10,0.00
2013-1-4,34.1,29.0,24.2,23.6,21.6,18.9,82,74,62,30.51,30.43,2,0,4,0.00
2013-1-5,32.7,31.3,29.5,30.1,27.0,22.3,92,84,73,30.47,30.32,0,0,2,0.11
2013-1-6,35.8,31.7,25.9,30.7,27.7,23.2,91,85,77,30.32,30.15,1,0,2,0.00
2013-1-7,55.6,43.1,33.7,46.9,37.3,29.8,91,81,61,30.15,29.97,3,1,6,0.00
2013-1-8,47.3,42.9,37.4,42.9,40.2,36.3,96,90,76,30.19,29.94,2,0,3,0.06
2013-1-9,49.0,40.1,34.5,40.2,35.8,31.0,98,85,63,29.98,29.72,11,3,13,0.01
2013-1-10,45.7,39.0,32.0,33.5,29.8,26.8,92,71,48,30.07,29.96,10,3,13,0.00
2013-1-11,43.6,35.5,26.4,30.2,25.6,18.2,86,69,38,30.34,30.06,1,0,4,0.00
2013-1-12,38.0,28.3,22.6,27.8,23.2,19.7,89,81,62,30.45,30.34,1,0,4,0.00
2013-1-13,32.3,26.3,21.2,24.6,22.2,18.8,92,85,73,30.55,30.45,1,0,2,0.00
2013-1-14,47.5,34.3,25.2,33.2,27.1,21.5,88,76,52,30.54,30.38,9,2,13,0.00
2013-1-15,45.1,35.0,28.9,35.9,30.6,26.5,92,84,69,30.68,30.51,1,0,3,0.00
2013-1-16,36.2,34.6,31.7,33.0,31.1,27.8,91,87,84,30.65,30.60,4,1,6,0.00
2013-1-17,33.2,32.2,31.5,29.6,27.6,26.9,92,83,79,30.66,30.50,2,0,4,0.00
2013-1-18,37.3,32.7,29.4,30.0,27.8,26.3,91,82,74,30.50,30.34,1,0,2,0.00
2013-1-19,32.6,31.7,30.7,29.7,28.1,27.2,90,86,82,30.56,30.41,2,1,5,0.00
2013-1-20,32.2,30.7,29.8,28.1,26.9,26.0,87,86,83,30.64,30.54,5,2,6,0.00
2013-1-21,31.9,30.4,29.4,26.8,25.9,24.7,87,83,76,30.54,30.41,4,1,7,0.00
2013-1-22,30.7,29.5,28.9,25.9,24.9,23.8,87,83,79,30.43,30.27,5,2,8,0.00
2013-1-23,33.7,30.8,29.3,27.7,25.4,23.8,86,80,72,30.27,30.09,4,1,9,0.00
2013-1-24,36.6,33.2,28.3,34.0,29.9,24.9,92,88,84,30.31,30.23,1,0,2,0.00
2013-1-25,41.4,37.7,35.7,38.0,35.3,33.3,100,91,83,30.23,30.00,1,0,2,0.02
2013-1-26,45.3,39.5,35.5,40.3,36.8,32.7,97,90,78,30.08,29.98,1,0,3,0.00
2013-1-27,47.3,38.9,31.8,39.0,34.2,29.7,93,84,70,30.12,30.05,8,1,10,0.00
2013-1-28,49.2,42.0,35.3,40.1,37.0,32.6,91,83,59,30.09,30.04,8,1,16,0.02
2013-1-29,51.7,48.3,43.4,41.8,39.7,37.9,83,72,61,30.37,30.06,10,4,14,0.00
2013-1-30,56.2,50.1,46.1,45.4,42.8,40.1,82,76,66,30.39,30.35,10,4,16,0.00
2013-1-31,57.7,49.9,42.4,43.8,41.5,37.9,84,73,53,30.39,30.31,10,2,16,0.00
2013-2-1,56.5,43.4,35.5,42.0,37.1,33.1,92,79,52,30.48,30.34,1,0,2,0.00
2013-2-2,52.9,40.4,30.9,41.1,35.0,28.6,96,82,63,30.51,30.34,1,0,2,0.00
2013-2-3,52.9,43.7,31.5,41.9,36.5,29.3,95,77,62,30.34,30.19,10,3,16,0.00
2013-2-4,53.9,47.4,41.5,41.2,38.9,35.9,86,72,60,30.21,29.98,5,1,10,0.00
2013-2-5,56.0,44.8,38.2,42.7,39.0,35.3,91,80,55,30.05,29.91,9,1,12,0.00
2013-2-6,52.4,44.6,39.1,41.2,38.3,35.6,88,79,60,30.14,29.93,2,0,4,0.00
2013-2-7,51.4,43.2,34.6,39.5,34.4,29.2,90,72,51,30.14,29.93,6,1,10,0.01
2013-2-8,52.7,39.4,29.5,35.3,30.9,26.1,88,73,49,30.25,30.14,5,0,12,0.00
2013-2-9,52.4,43.5,33.0,37.5,33.2,27.2,81,68,53,30.28,30.15,11,3,15,0.00
2013-2-10,55.6,42.0,32.9,38.9,34.2,29.5,88,75,47,30.36,30.25,3,0,6,0.00
2013-2-11,54.6,44.4,32.8,40.3,35.1,29.1,88,71,51,30.34,30.26,13,3,16,0.00
2013-2-12,56.2,50.3,43.5,44.7,42.1,38.3,85,74,57,30.42,30.34,10,2,11,0.00
2013-2-13,58.4,51.8,46.3,44.3,40.9,36.7,77,67,49,30.48,30.34,10,4,15,0.00
2013-2-14,58.7,47.9,41.0,42.7,39.0,34.7,86,72,55,30.55,30.48,9,1,13,0.00
2013-2-15,59.6,44.9,32.8,43.6,38.3,30.7,93,79,55,30.57,30.30,4,0,4,0.00
2013-2-16,55.9,43.7,32.1,44.1,36.3,30.3,94,76,58,30.31,30.16,20,2,20,0.00
2013-2-17,49.9,44.8,36.1,34.0,29.5,27.4,74,55,44,30.26,30.14,23,4,23,0.00
2013-2-18,49.1,39.9,34.1,34.6,31.1,28.3,84,71,53,30.14,29.83,10,0,10,0.00
2013-2-19,53.1,38.4,28.7,35.0,29.9,25.8,90,73,43,30.00,29.79,5,0,5,0.00
2013-2-20,50.5,39.5,27.8,39.2,32.6,24.8,90,77,55,30.09,30.00,19,2,19,0.01
2013-2-21,50.9,43.1,36.8,38.5,36.2,32.8,92,77,52,30.15,30.09,21,2,21,0.00
2013-2-22,48.9,44.6,39.2,43.3,37.8,31.9,87,77,59,30.14,29.82,19,1,19,0.04
2013-2-23,50.6,44.4,36.9,36.0,32.5,29.3,82,64,45,30.40,30.01,22,4,22,0.00
2013-2-24,53.4,42.8,33.8,35.7,32.8,28.2,82,69,47,30.42,30.10,15,1,15,0.00
2013-2-25,51.4,42.9,37.5,40.2,35.7,31.4,97,76,50,30.33,30.03,28,3,28,0.21
2013-2-26,52.2,44.5,35.5,37.4,34.1,30.3,82,68,47,30.41,30.27,11,1,11,0.00
2013-2-27,54.8,43.8,33.3,43.2,36.5,30.5,90,77,54,30.37,30.27,4,0,4,0.00
2013-2-28,55.7,48.6,44.0,50.5,45.5,41.6,96,89,76,30.43,30.26,5,0,5,0.15
2013-3-1,62.4,52.2,44.2,52.3,47.1,42.0,96,83,64,30.46,30.34,14,1,14,0.00
2013-3-2,58.4,48.4,41.5,49.7,43.6,36.8,95,84,67,30.34,30.09,23,2,23,0.01
2013-3-3,53.0,46.4,36.1,36.9,30.0,26.9,77,54,37,30.29,30.18,22,4,22,0.00
2013-3-4,53.9,40.2,28.7,31.7,27.3,22.4,89,63,31,30.33,30.06,14,1,14,0.00
2013-3-5,46.7,39.7,33.1,39.7,32.0,25.9,92,74,53,30.06,29.80,8,0,8,0.04
2013-3-6,42.6,40.5,37.2,39.6,38.4,35.8,96,92,87,29.97,29.65,6,0,6,0.40
2013-3-7,57.8,43.0,32.0,40.6,34.4,28.5,96,75,34,30.12,29.97,7,0,7,0.01
2013-3-8,60.9,42.4,31.2,38.8,33.9,28.9,93,74,37,30.22,30.06,3,0,3,0.00
2013-3-9,64.7,47.5,31.2,38.7,30.7,21.1,91,59,19,30.46,30.22,22,2,22,0.00
2013-3-10,59.6,48.3,38.9,43.6,37.5,30.5,76,67,47,30.48,30.35,25,4,25,0.00
2013-3-11,58.7,52.8,48.4,47.0,44.6,42.6,87,74,58,30.41,30.25,13,1,13,0.00
2013-3-12,62.4,53.4,44.9,50.5,45.7,42.3,91,76,58,30.25,30.13,25,2,25,0.00
2013-3-13,70.1,56.9,47.5,48.4,45.7,42.6,85,68,44,30.24,30.11,11,0,11,0.00
2013-3-14,67.9,54.3,47.0,50.1,45.4,40.9,90,74,43,30.19,30.03,21,2,21,0.00
2013-3-15,64.3,55.0,44.7,49.4,45.5,41.4,92,71,53,30.24,30.15,17,2,17,0.00
2013-3-16,58.7,50.4,41.1,46.4,41.1,35.0,87,71,50,30.15,29.91,25,6,25,0.16
2013-3-17,49.1,44.5,39.7,36.6,33.6,29.8,82,66,50,30.25,30.06,20,4,20,0.00
2013-3-18,55.4,46.9,39.6,37.3,33.9,31.4,83,62,42,30.25,30.18,25,3,25,0.00
2013-3-19,50.6,42.9,35.3,40.6,34.2,30.3,92,72,51,30.25,29.83,7,0,7,0.08
2013-3-20,56.8,45.8,40.9,44.3,39.0,33.4,95,79,45,30.08,29.61,32,4,32,0.29
2013-3-21,48.6,42.4,37.3,38.0,34.2,30.2,83,73,58,30.25,30.08,22,3,22,0.01
2013-3-22,50.6,43.2,34.0,32.9,28.8,24.2,81,58,38,30.39,30.23,26,4,26,0.00
2013-3-23,51.9,41.3,35.4,33.6,28.5,20.9,82,63,31,30.42,30.29,5,0,5,0.00
2013-3-24,54.1,41.9,30.3,34.9,28.8,23.5,89,63,31,30.38,30.19,7,0,7,0.00
2013-3-25,59.4,42.4,35.1,34.7,30.8,27.5,79,65,35,30.19,30.03,7,0,7,0.00
2013-3-26,55.2,52.2,50.3,42.8,41.4,40.1,75,67,58,29.99,29.97,3,0,3,0.00
2013-3-27,59.6,49.3,43.0,50.8,43.6,39.1,92,81,69,30.01,29.93,9,0,9,0.02
2013-3-28,67.5,55.6,46.7,49.3,46.7,43.9,94,75,43,30.12,30.02,12,0,12,0.01
2013-3-29,73.5,59.6,50.8,50.7,47.6,45.0,90,67,37,30.23,30.12,4,0,4,0.01
2013-3-30,73.5,57.7,43.6,50.4,45.2,40.9,91,66,37,30.29,30.06,9,0,9,0.00
2013-3-31,76.9,57.8,42.4,47.0,43.2,39.2,89,62,30,30.10,29.90,4,0,4,0.00
2013-4-1,69.9,61.6,51.8,52.5,49.0,44.4,80,64,50,30.10,29.95,26,5,26,0.00
2013-4-2,68.5,61.1,54.3,50.0,48.0,46.1,77,63,48,30.17,30.09,23,6,23,0.00
2013-4-3,72.8,58.9,45.1,50.2,46.6,41.3,88,66,37,30.17,29.95,6,0,6,0.00
2013-4-4,61.8,57.0,53.7,55.6,51.1,48.0,90,81,63,29.95,29.74,9,0,9,0.12
2013-4-5,66.0,55.9,47.7,51.1,48.2,44.8,92,76,51,29.93,29.85,23,2,23,0.01
2013-4-6,57.8,52.9,46.8,49.3,44.3,39.6,94,73,54,30.00,29.84,25,4,25,0.13
2013-4-7,46.5,46.0,45.4,43.2,43.1,42.8,92,90,87,29.83,29.78,0,0,0,0.09
2013-4-8,60.1,55.1,47.9,41.9,39.8,37.2,69,57,47,30.26,30.07,25,5,25,0.00
2013-4-9,66.1,52.8,39.6,43.1,39.1,33.9,83,61,33,30.37,30.24,16,1,16,0.00
2013-4-10,66.3,54.8,46.9,51.9,42.9,34.6,85,66,45,30.25,30.03,29,5,29,0.02
2013-4-11,61.1,52.0,41.5,39.5,37.5,34.8,78,58,43,30.28,30.16,25,4,25,0.00
2013-4-12,59.4,48.7,37.8,43.6,38.0,33.4,86,68,47,30.17,29.75,30,4,30,0.00
2013-4-13,55.2,48.4,40.9,42.2,34.8,28.4,81,60,38,30.04,29.76,32,8,32,0.01
2013-4-14,57.6,48.8,39.0,37.6,34.6,27.9,80,60,33,30.05,29.88,22,5,22,0.00
2013-4-15,57.2,47.6,40.6,40.8,37.0,33.4,82,67,46,30.16,29.93,14,1,14,0.00
2013-4-16,59.0,48.2,38.9,39.8,35.2,28.2,88,64,34,30.41,30.16,16,0,16,0.00
2013-4-17,63.9,50.1,35.3,39.3,34.0,29.6,83,57,28,30.50,30.38,24,2,24,0.00
2013-4-18,62.7,55.1,49.3,47.2,41.7,38.0,75,61,48,30.43,30.28,21,6,21,0.00
2013-4-19,65.8,56.7,48.7,50.5,46.8,43.6,86,70,53,30.28,30.09,24,5,24,0.00
2013-4-20,62.4,57.0,52.0,45.9,42.6,37.9,76,59,46,30.27,30.20,24,7,24,0.00
2013-4-21,60.3,54.4,50.0,44.4,42.8,40.4,74,65,53,30.30,30.17,22,6,22,0.00
2013-4-22,64.9,53.6,41.5,43.6,34.8,23.9,86,54,22,30.50,30.30,14,1,14,0.00
2013-4-23,70.2,51.4,35.1,37.6,30.2,20.4,80,49,18,30.45,30.15,16,0,16,0.00
2013-4-24,77.5,55.9,37.3,41.6,33.9,27.6,79,49,19,30.37,29.99,7,0,7,0.00
2013-4-25,80.9,65.0,47.3,45.3,41.8,38.6,77,47,26,30.07,29.96,22,4,22,0.00
2013-4-26,84.5,69.1,52.1,49.8,42.7,35.1,76,43,18,30.19,30.07,21,2,21,0.00
2013-4-27,77.0,63.8,49.9,45.3,40.7,30.4,72,46,20,30.20,30.10,29,6,29,0.00
2013-4-28,67.7,61.6,55.0,49.7,44.5,40.0,81,55,37,30.21,29.97,27,6,27,0.00
2013-4-29,61.1,56.3,48.6,46.9,36.5,27.6,72,49,29,30.13,29.94,31,8,31,0.00
2013-4-30,59.9,52.3,46.5,33.9,30.0,26.7,58,43,31,30.41,30.13,29,7,29,0.00
2013-5-1,70.0,54.0,38.1,36.6,33.1,28.6,78,49,23,30.59,30.41,11,0,11,0.00
2013-5-2,81.5,60.7,41.3,45.1,35.9,30.5,76,45,17,30.58,30.22,9,0,9,0.00
2013-5-3,83.3,66.5,50.2,47.7,43.3,38.5,76,47,21,30.32,30.10,6,0,6,0.00
2013-5-4,81.7,66.5,48.4,46.9,41.4,34.5,80,46,20,30.20,29.95,18,1,18,0.00
2013-5-5,85.1,68.4,49.6,47.8,42.3,38.7,73,42,21,29.97,29.74,23,1,23,0.00
2013-5-6,92.7,71.2,51.0,54.1,47.2,38.7,79,48,17,29.86,29.67,8,0,8,0.00
2013-5-7,84.2,78.2,69.9,53.4,52.0,49.8,55,41,32,29.89,29.75,21,7,21,0.00
2013-5-8,81.5,70.3,58.9,56.1,53.5,50.4,74,56,41,30.04,29.89,13,2,13,0.00
2013-5-9,89.0,73.2,57.3,57.6,53.7,50.3,79,53,27,30.11,29.96,16,1,16,0.00
2013-5-10,94.8,76.3,58.9,57.1,51.8,44.3,76,47,21,30.14,29.99,19,1,19,0.00
2013-5-11,92.5,78.7,64.0,59.8,54.2,48.1,68,45,24,30.12,29.93,16,1,16,0.00
2013-5-12,78.1,72.0,64.6,60.2,56.9,53.4,72,59,45,30.06,29.99,28,5,28,0.00
2013-5-13,73.6,64.0,57.1,57.0,51.7,43.0,79,65,37,30.18,30.00,30,4,30,0.01
2013-5-14,70.3,59.1,51.3,44.8,41.4,28.7,73,54,23,30.22,30.09,20,2,20,0.00
2013-5-15,64.7,61.7,57.3,49.4,47.4,44.1,73,60,49,30.05,30.00,17,5,17,0.00
2013-5-16,74.3,62.0,50.4,52.4,48.8,46.2,88,64,39,30.03,29.85,21,2,21,0.00
2013-5-17,69.5,61.1,54.1,51.2,46.5,40.1,88,60,37,30.06,29.94,24,5,24,0.14
2013-5-18,64.5,56.5,50.7,49.9,46.6,44.8,81,70,55,30.15,30.06,20,3,20,0.02
2013-5-19,70.7,66.9,56.7,47.6,46.3,43.8,66,48,41,30.31,30.26,27,8,27,0.00
2013-5-20,83.3,65.7,49.1,49.7,46.3,42.1,80,53,26,30.31,29.84,14,1,14,0.00
2013-5-21,66.2,56.3,46.9,49.3,44.0,38.7,83,64,44,29.93,29.75,24,6,24,0.10
2013-5-22,51.3,49.0,47.1,46.5,43.0,37.3,93,80,64,29.99,29.91,12,1,12,0.16
2013-5-23,61.4,53.4,47.1,48.3,45.5,42.8,94,76,56,30.06,29.99,16,2,16,0.01
2013-5-24,64.8,56.3,49.3,48.9,46.9,44.7,94,72,50,30.07,30.00,21,4,21,0.12
2013-5-25,70.3,58.3,47.8,51.3,46.3,42.8,85,66,43,30.07,29.93,12,1,12,0.00
2013-5-26,70.8,63.3,55.6,56.3,51.5,48.4,95,67,47,30.01,29.93,21,4,21,0.19
2013-5-27,58.4,53.8,52.1,54.1,49.2,46.4,93,85,71,30.00,29.85,7,0,7,0.15
2013-5-28,68.5,62.8,53.5,53.3,49.8,47.9,82,63,49,29.91,29.77,22,4,22,0.00
2013-5-29,66.2,58.4,53.1,55.3,51.4,47.8,95,79,56,30.01,29.70,23,3,23,0.30
2013-5-30,67.7,59.3,51.4,48.6,46.0,43.3,81,63,43,30.23,30.01,23,6,23,0.00
2013-5-31,76.2,64.0,49.7,51.0,46.5,42.1,85,56,32,30.32,30.18,15,1,15,0.00
2013-6-1,79.8,66.8,52.4,53.7,50.4,46.6,84,58,36,30.22,29.98,25,2,25,0.00
2013-6-2,77.0,68.0,56.1,54.6,50.0,46.3,84,55,36,30.01,29.93,30,5,30,0.00
2013-6-3,82.5,69.8,53.5,53.1,50.2,45.6,81,52,33,30.07,29.92,21,2,21,0.00
2013-6-4,88.0,72.6,56.9,53.7,49.5,41.2,76,48,20,30.11,29.96,12,0,12,0.00
2013-6-5,91.7,75.5,56.8,57.8,52.7,44.4,80,49,20,30.05,29.88,20,2,20,0.00
2013-6-6,91.2,76.7,63.3,61.4,56.0,47.7,80,53,25,29.98,29.86,12,2,16,0.00
2013-6-7,82.8,75.7,65.6,55.7,49.7,38.2,58,41,23,30.04,29.93,35,9,35,0.00
2013-6-8,88.3,74.5,58.3,52.3,46.9,32.0,66,41,15,30.07,29.93,25,5,25,0.00
2013-6-9,79.9,70.9,60.8,53.4,48.0,40.7,70,46,26,30.00,29.87,27,6,27,0.00
2013-6-10,78.0,67.2,56.0,49.2,45.8,37.0,74,48,24,29.93,29.78,25,5,25,0.00
2013-6-11,67.6,61.4,55.8,47.8,45.1,41.3,69,56,42,30.11,29.87,23,8,23,0.00
2013-6-12,71.8,62.6,52.4,48.0,45.4,40.7,79,55,35,30.13,30.07,26,6,26,0.00
2013-6-13,70.2,61.7,53.5,51.9,47.8,45.7,84,62,43,30.23,30.12,27,5,27,0.02
2013-6-14,78.2,66.6,54.4,53.4,48.6,44.4,74,54,31,30.24,29.99,16,3,16,0.00
2013-6-15,91.7,72.2,52.8,56.5,49.2,39.2,82,49,17,29.99,29.82,14,1,14,0.00
2013-6-16,86.0,74.1,65.6,58.8,54.4,49.7,69,51,31,30.04,29.92,24,4,24,0.06
2013-6-17,83.0,73.3,65.0,55.9,52.7,49.3,70,50,34,30.04,29.86,22,4,22,0.00
2013-6-18,75.8,67.1,60.8,52.7,48.1,42.4,67,52,32,29.98,29.84,20,4,20,0.00
2013-6-19,71.5,63.9,59.1,50.3,47.0,43.8,70,55,40,30.03,29.89,25,7,25,0.00
2013-6-20,70.3,63.7,58.2,52.0,49.4,45.8,73,60,44,30.10,29.99,24,5,24,0.00
2013-6-21,72.7,63.0,57.0,52.3,50.3,46.4,84,65,43,30.12,30.07,18,2,18,0.01
2013-6-22,86.8,71.7,57.7,55.8,51.0,46.3,75,51,26,30.10,29.83,9,0,9,0.00
2013-6-23,79.4,70.0,64.6,63.8,57.9,52.6,94,67,41,29.85,29.65,14,0,14,0.05
2013-6-24,73.3,65.4,62.0,62.9,56.3,53.1,96,73,52,29.72,29.64,15,2,15,0.03
2013-6-25,70.4,62.9,58.4,61.4,58.1,54.9,96,85,65,29.90,29.72,13,0,13,0.59
2013-6-26,76.8,66.7,58.9,61.9,58.2,55.1,95,76,50,30.07,29.90,16,1,16,0.01
2013-6-27,88.2,74.7,61.8,63.0,60.6,57.4,87,64,41,30.15,30.06,16,2,16,0.00
2013-6-28,99.0,81.6,63.9,66.8,62.3,-99.9,88,56,30,30.18,29.93,16,-3,16,0.00
2013-6-29,95.7,84.7,74.4,66.6,62.5,56.6,70,50,29,30.01,29.90,19,4,19,0.00
2013-6-30,101.5,84.8,66.3,66.1,61.7,56.0,78,49,27,29.99,29.78,12,0,12,0.00
2013-7-1,102.1,86.5,73.4,69.8,66.9,63.8,77,54,33,29.92,29.81,17,1,17,0.00
2013-7-2,101.2,87.7,75.8,71.0,63.4,50.1,73,47,26,29.97,29.86,21,3,21,0.00
2013-7-3,94.8,82.1,71.3,61.8,52.0,35.9,66,40,14,30.04,29.89,22,6,22,0.00
2013-7-4,84.3,74.9,65.6,55.5,50.7,44.8,60,44,31,29.99,29.87,29,7,29,0.00
2013-7-5,79.2,71.6,63.7,54.3,51.9,49.8,65,50,41,29.95,29.84,28,7,28,0.00
2013-7-6,89.3,74.4,58.5,60.6,54.5,47.7,77,53,26,29.93,29.75,14,1,14,0.00
2013-7-7,88.2,76.8,64.1,61.8,57.8,52.7,77,54,31,29.87,29.75,24,3,24,0.00
2013-7-8,91.5,77.4,62.9,60.2,57.0,52.6,73,52,29,29.99,29.84,19,3,19,0.00
2013-7-9,99.0,84.4,65.3,62.3,57.4,50.8,66,42,23,30.07,29.87,20,2,20,0.00
2013-7-10,91.3,80.7,69.7,60.4,54.8,41.9,68,43,24,29.96,29.81,27,7,27,0.00
2013-7-11,83.8,71.6,58.5,52.6,46.9,39.4,68,44,22,29.97,29.84,24,7,24,0.00
2013-7-12,80.0,73.5,62.3,53.1,46.5,37.5,60,39,23,30.04,29.90,24,6,24,0.00
2013-7-13,90.8,73.4,55.9,53.9,42.5,19.5,68,40,9,30.15,29.98,6,0,6,0.00
2013-7-14,94.3,77.3,58.1,52.7,46.8,37.1,69,38,15,30.09,29.85,19,2,19,0.00
2013-7-15,94.0,78.5,61.4,55.0,48.3,42.2,59,37,20,29.97,29.79,13,1,13,0.00
2013-7-16,94.5,79.3,62.5,57.9,51.1,46.8,68,40,21,29.91,29.76,13,1,13,0.00
2013-7-17,88.0,80.4,69.7,58.1,53.0,43.6,66,40,23,30.08,29.85,25,7,25,0.00
2013-7-18,96.7,77.9,60.6,58.6,51.7,40.9,66,43,17,30.13,29.94,19,1,19,0.00
2013-7-19,98.0,80.5,63.9,63.0,56.9,47.8,65,47,19,30.04,29.85,18,1,18,0.00
2013-7-20,94.6,85.6,71.9,62.0,59.5,54.8,67,42,28,29.96,29.77,22,6,22,0.00
2013-7-21,96.2,80.1,62.8,60.6,56.6,51.5,71,47,26,29.86,29.74,24,5,24,0.00
2013-7-22,95.5,80.4,66.0,60.2,55.8,51.7,62,45,24,29.90,29.81,22,3,22,0.00
2013-7-23,100.3,86.9,66.5,61.6,55.1,44.9,60,37,16,29.99,29.81,20,2,20,0.00
2013-7-24,97.5,84.6,65.6,61.4,52.7,41.8,63,37,15,29.96,29.84,24,4,24,0.00
2013-7-25,99.3,83.6,64.2,60.1,51.5,41.4,51,35,20,29.99,29.88,22,2,22,0.00
2013-7-26,98.8,84.8,66.4,58.5,53.9,44.6,57,37,17,30.04,29.91,23,4,23,0.00
2013-7-27,88.6,77.1,62.8,54.9,48.2,42.0,58,38,20,30.07,29.87,25,6,25,0.00
2013-7-28,83.3,73.4,61.3,55.6,51.5,45.7,70,48,31,29.93,29.82,29,7,29,0.00
2013-7-29,87.8,78.1,57.6,56.7,51.1,45.0,75,41,23,29.94,29.83,19,4,19,0.00
2013-7-30,91.5,79.6,68.0,59.8,54.6,42.3,67,44,20,30.05,29.92,18,4,18,0.00
2013-7-31,90.4,77.2,68.9,63.3,57.6,48.9,64,51,31,30.04,29.88,14,1,14,0.00
2013-8-1,77.7,71.5,65.4,60.4,57.4,55.2,73,62,50,30.03,29.93,29,8,29,0.00
2013-8-2,76.7,69.7,60.3,57.0,55.0,51.6,74,60,48,30.08,30.01,21,6,21,0.00
2013-8-3,90.0,75.1,60.2,62.8,57.6,53.1,78,57,34,30.09,29.92,13,0,13,0.00
2013-8-4,97.5,80.8,64.1,62.5,59.5,55.1,80,52,25,30.02,29.81,13,0,13,0.00
2013-8-5,96.7,83.1,68.1,65.8,59.7,53.1,70,48,26,29.95,29.80,20,2,20,0.00
2013-8-6,97.4,82.5,65.6,63.3,55.8,43.5,74,44,21,29.94,29.80,21,2,21,0.00
2013-8-7,97.8,81.5,64.6,58.2,52.8,42.5,63,39,16,29.94,29.80,24,5,24,0.00
2013-8-8,91.8,82.3,72.0,64.6,62.1,54.8,65,51,29,29.93,29.79,14,2,14,0.00
2013-8-9,92.7,79.3,70.3,66.3,63.0,54.8,78,60,34,29.91,29.70,25,2,25,0.04
2013-8-10,86.0,75.4,65.6,66.0,63.0,58.1,86,67,47,29.96,29.86,24,2,24,0.00
2013-8-11,79.2,75.8,70.6,61.1,57.8,56.5,72,54,46,29.97,29.91,10,3,14,0.01
2013-8-12,89.0,79.1,64.1,61.1,58.1,54.8,79,50,33,30.01,29.90,21,3,21,0.00
2013-8-13,96.4,80.0,63.7,60.2,54.2,44.5,70,45,17,30.05,29.85,10,2,14,0.00
2013-8-14,91.0,78.5,66.5,60.7,55.6,48.9,65,47,31,29.93,29.83,21,3,21,0.00
2013-8-15,88.5,81.2,67.9,64.5,61.1,51.8,65,51,38,29.94,29.85,27,5,27,0.00
2013-8-16,87.3,79.2,70.8,72.1,64.9,62.1,82,62,47,29.97,29.90,22,2,22,0.27
2013-8-17,87.2,78.4,67.7,64.4,60.5,57.1,85,56,40,30.03,29.93,26,4,26,0.00
2013-8-18,89.5,78.1,64.4,62.5,57.9,48.4,80,53,26,30.07,29.94,26,4,26,0.00
2013-8-19,89.5,78.4,65.2,61.0,56.3,50.1,74,49,31,30.04,29.93,28,6,28,0.00
2013-8-20,92.2,77.2,60.6,60.0,54.4,44.2,77,49,21,30.08,29.89,18,2,18,0.00
2013-8-21,94.8,81.4,62.2,60.2,53.2,45.3,70,41,19,30.04,29.85,14,1,14,0.00
2013-8-22,84.7,75.6,62.5,62.7,56.1,50.5,68,51,40,29.91,29.79,17,1,17,0.00
2013-8-23,80.5,74.8,68.9,65.0,59.4,53.3,84,60,40,29.87,29.79,22,5,22,0.02
2013-8-24,81.0,73.6,65.6,59.1,56.3,53.1,74,56,42,29.87,29.78,25,6,25,0.00
2013-8-25,79.3,68.8,62.7,64.0,58.9,54.6,96,73,44,29.92,29.84,14,1,16,0.28
2013-8-26,83.3,69.2,60.2,64.6,59.8,54.2,97,75,47,29.96,29.86,16,1,16,0.01
2013-8-27,91.2,74.6,58.4,63.4,58.2,53.7,86,60,34,29.98,29.71,17,1,17,0.00
2013-8-28,90.3,80.3,71.6,65.2,62.1,59.7,70,55,39,29.85,29.76,20,3,20,0.00
2013-8-29,84.7,76.6,70.6,67.2,63.2,60.3,78,64,50,30.03,29.82,20,2,20,0.02
2013-8-30,86.0,76.4,67.8,63.8,60.8,57.6,81,60,40,30.12,29.99,18,3,18,0.00
2013-8-31,93.3,77.0,62.1,63.5,58.7,56.4,83,57,31,30.04,29.78,9,0,9,0.00
2013-9-1,93.8,78.9,64.8,63.6,58.9,55.1,73,52,31,29.84,29.69,23,2,23,0.00
2013-9-2,89.6,79.6,71.7,62.1,59.2,56.6,61,50,37,29.86,29.76,19,5,23,0.00
2013-9-3,86.6,80.0,68.4,63.5,59.2,56.9,70,50,39,29.93,29.85,23,4,23,0.00
2013-9-4,86.3,75.8,65.8,62.3,59.2,56.0,76,57,41,29.96,29.87,23,3,23,0.00
2013-9-5,81.4,72.4,61.8,64.1,60.6,56.6,87,67,53,30.00,29.81,25,3,25,0.17
2013-9-6,74.3,66.0,59.8,63.3,59.2,56.8,97,80,59,30.11,29.99,20,3,20,0.28
2013-9-7,85.1,69.9,57.3,62.0,58.2,54.6,92,69,40,30.11,29.93,4,0,4,0.00
2013-9-8,89.3,73.5,60.1,63.7,59.2,56.4,88,64,35,30.09,29.92,5,0,5,0.00
2013-9-9,93.2,78.2,63.6,67.4,63.4,57.3,80,62,38,29.99,29.82,12,0,12,0.00
2013-9-10,95.3,78.7,64.9,66.4,61.0,53.7,86,59,25,29.97,29.82,14,1,14,0.00
2013-9-11,99.7,78.4,62.8,65.5,59.4,55.6,81,56,24,30.00,29.85,6,0,6,0.00
2013-9-12,96.2,79.1,64.5,67.3,62.3,56.7,77,59,32,29.96,29.77,9,0,9,0.00
2013-9-13,89.8,78.8,68.6,67.9,64.5,60.6,77,63,46,29.85,29.70,15,1,15,0.00
2013-9-14,98.5,78.3,64.3,68.2,62.9,58.4,84,63,31,29.82,29.63,7,0,7,0.00
2013-9-15,84.5,74.0,67.6,67.8,63.6,59.8,85,71,50,29.82,29.62,28,4,28,0.11
2013-9-16,76.0,69.4,63.9,59.8,57.0,53.9,76,65,53,29.92,29.82,21,6,21,0.00
2013-9-17,73.0,66.3,61.6,57.5,52.4,46.3,80,62,40,29.92,29.78,26,5,26,0.00
2013-9-18,74.2,65.0,55.3,53.2,49.0,45.3,79,58,38,30.05,29.92,22,3,22,0.00
2013-9-19,82.7,64.2,48.2,53.2,48.2,43.9,86,60,32,30.08,29.81,13,0,13,0.00
2013-9-20,82.1,65.1,50.4,57.5,50.1,44.8,82,61,31,29.81,29.58,23,3,23,0.01
2013-9-21,75.7,64.6,58.4,58.3,55.3,52.8,86,73,48,29.75,29.65,19,2,19,0.03
2013-9-22,66.2,59.2,54.5,57.0,53.3,49.8,92,81,59,29.83,29.68,11,0,11,0.11
2013-9-23,65.9,60.5,55.3,56.0,53.1,50.3,88,77,61,29.98,29.83,18,1,18,0.00
2013-9-24,65.5,58.2,54.5,52.9,50.2,46.4,86,75,56,29.97,29.84,18,2,18,0.01
2013-9-25,66.5,58.3,50.3,49.4,47.2,45.6,84,67,51,29.96,29.83,17,4,21,0.01
2013-9-26,70.6,65.1,57.1,49.5,47.3,44.8,68,53,42,30.12,29.98,18,3,18,0.00
2013-9-27,64.3,57.0,52.0,55.0,50.1,44.4,97,78,57,30.12,29.94,15,1,15,0.12
2013-9-28,70.3,58.8,54.3,63.1,56.0,47.8,100,91,65,29.94,29.48,25,1,25,0.41
2013-9-29,60.3,55.7,50.0,55.4,51.7,46.7,93,87,76,29.71,29.38,21,1,21,0.27
2013-9-30,65.3,57.8,51.0,53.2,47.1,42.3,83,68,51,30.00,29.55,29,3,29,0.01
2013-11-6,51.9,49.4,46.6,48.3,46.7,45.2,95,90,85,30.36,30.24,6,0,6,0.15
2013-11-7,54.3,49.4,45.4,49.9,45.3,43.0,96,86,68,30.24,29.92,17,1,17,0.10
2013-11-8,55.5,50.5,44.0,48.0,45.4,41.0,98,83,68,30.19,30.06,9,0,9,0.00
2013-11-9,51.9,45.6,40.4,45.2,42.3,38.6,95,88,77,30.20,30.13,3,0,3,0.00
2013-11-10,55.3,47.1,42.2,46.8,43.7,40.6,100,88,73,30.27,30.16,4,0,4,0.00
2013-11-11,52.4,48.8,45.2,46.7,44.9,42.6,92,86,80,30.38,30.26,4,0,4,0.00
2013-11-12,56.3,49.3,43.4,50.5,46.7,42.8,98,91,79,30.43,30.26,3,0,3,0.11
2013-11-13,62.0,49.7,40.0,50.8,44.3,39.7,100,83,55,30.47,30.29,17,2,17,0.00
2013-11-14,55.4,47.6,40.8,45.6,41.5,38.8,95,80,62,30.29,30.05,19,2,19,0.00
2013-11-15,52.7,48.4,41.5,43.3,39.6,37.3,87,72,60,30.06,29.44,26,2,26,0.00
2013-11-16,52.8,48.2,45.5,46.2,42.0,38.0,93,80,59,29.82,29.40,23,4,23,0.07
2013-11-17,53.1,48.3,44.5,48.9,45.9,43.2,98,91,81,29.99,29.82,4,0,4,0.07
2013-11-18,49.5,46.1,41.5,47.2,44.1,40.4,97,93,86,29.99,29.71,4,0,4,0.02
2013-11-19,55.7,49.7,44.6,52.9,46.1,36.4,100,88,70,29.97,29.69,24,3,24,0.19
2013-11-20,46.1,38.3,26.7,36.5,26.8,18.6,88,65,35,30.54,29.97,10,1,11,0.00
2013-11-21,43.6,29.6,21.1,24.5,20.5,17.8,88,70,41,30.79,30.54,7,0,7,0.00
2013-11-22,41.3,29.1,20.5,26.0,21.2,17.2,88,73,52,30.86,30.73,5,0,5,0.00
2013-11-23,43.3,30.4,21.6,28.2,23.0,18.8,90,75,53,30.73,30.45,6,0,6,0.00
2013-11-24,42.9,30.3,22.5,28.6,24.2,19.9,90,79,55,30.49,30.36,3,0,3,0.00
2013-11-25,43.2,31.3,23.0,30.5,26.0,21.0,93,81,60,30.55,30.45,4,0,4,0.00
2013-11-26,40.4,31.5,25.1,31.6,27.4,23.1,93,85,68,30.47,30.29,3,0,3,0.00
2013-11-27,43.7,34.2,28.3,33.4,29.8,26.3,93,84,66,30.29,30.18,3,0,3,0.00
2013-11-28,44.4,32.2,25.4,33.9,28.5,23.7,94,87,66,30.31,30.22,3,0,3,0.01
2013-11-29,37.4,32.5,26.8,34.9,30.7,25.5,96,93,88,30.37,30.29,5,0,5,0.00
2013-11-30,43.4,38.0,33.5,39.4,36.0,32.2,96,92,85,30.40,30.23,3,0,3,0.01
2013-12-1,63.7,50.4,40.5,56.8,47.9,39.5,100,92,68,30.23,29.85,21,2,21,1.10
2013-12-2,51.0,43.4,34.1,49.3,37.8,31.1,98,81,66,30.04,29.81,24,4,24,0.07
2013-12-3,39.6,34.4,25.7,33.6,27.0,20.0,96,75,47,30.35,30.04,12,1,12,0.00
2013-12-4,36.7,26.2,20.0,23.7,18.8,15.7,92,75,49,30.45,30.35,6,0,6,0.00
2013-12-5,28.0,22.0,16.0,19.5,16.0,12.9,92,78,66,30.43,30.32,9,0,9,0.00
2013-12-6,24.1,22.0,19.4,22.0,18.9,14.2,94,88,77,30.37,30.20,7,0,7,0.08
2013-12-7,23.4,17.1,5.9,20.0,8.5,0.6,90,70,49,30.56,30.25,7,0,7,0.00
2013-12-8,20.2,9.5,2.2,10.4,4.7,-1.8,87,81,64,30.70,30.55,4,0,4,0.00
2013-12-9,33.1,19.2,7.4,29.6,15.6,3.6,92,85,80,30.70,30.45,6,0,6,0.00
2013-12-10,44.4,34.3,25.8,36.3,30.0,23.4,92,84,72,30.51,30.43,13,0,13,0.00
2013-12-11,35.1,26.7,21.0,26.6,22.7,18.8,93,85,70,30.54,30.41,4,0,4,0.00
2013-12-12,32.6,26.6,19.7,28.2,23.0,17.2,91,86,79,30.41,30.21,4,0,4,0.00
2013-12-13,47.9,38.5,30.3,42.9,33.6,26.2,93,82,67,30.47,30.27,5,0,5,0.00
2013-12-14,42.1,38.4,33.2,40.9,37.5,33.0,100,97,93,30.48,30.39,3,0,3,0.00
2013-12-15,56.4,45.1,33.8,48.9,41.5,33.8,100,88,75,30.43,30.32,21,2,21,0.00
2013-12-16,52.3,42.4,33.3,46.1,38.8,32.0,96,87,74,30.49,30.35,9,0,9,0.00
2013-12-17,45.6,33.7,31.1,39.8,33.0,30.1,100,97,80,30.35,30.10,9,0,9,0.00
2013-12-18,52.2,44.8,38.9,42.8,38.4,30.0,90,79,57,30.12,29.97,11,2,14,0.00
2013-12-19,44.3,35.5,29.3,32.9,28.1,23.3,91,76,44,30.36,30.12,1,0,2,0.00
2013-12-20,50.1,40.6,31.0,45.3,35.1,26.3,88,80,70,30.20,29.71,15,4,23,0.00
2013-12-21,53.7,51.5,49.4,46.2,45.0,44.0,84,78,71,30.16,29.78,12,5,16,0.00
2013-12-22,55.5,51.4,46.7,48.9,46.1,42.1,91,82,77,30.33,30.16,21,2,21,0.00
2013-12-23,61.1,48.9,42.7,51.5,43.5,35.4,95,82,64,30.52,30.17,28,2,28,0.02
2013-12-24,49.7,39.6,31.3,40.3,34.8,29.8,95,83,64,30.62,30.52,13,0,13,0.00
2013-12-25,38.2,31.5,28.0,34.5,30.4,27.4,99,96,86,30.60,30.47,4,0,4,0.00
2013-12-26,32.7,30.8,28.5,31.9,30.2,27.8,99,98,96,30.50,30.38,6,0,6,0.00
2013-12-27,50.1,32.0,28.3,45.3,30.7,27.6,99,95,75,30.38,30.22,20,0,20,0.00
2013-12-28,44.7,35.9,32.5,41.1,35.0,32.5,100,97,85,30.56,30.31,11,0,11,0.00
2013-12-29,34.9,32.4,30.4,34.5,32.1,30.1,100,99,96,30.55,30.30,4,0,4,0.00
2013-12-30,38.5,35.4,31.2,35.5,33.6,30.4,99,93,86,30.34,30.22,5,0,5,0.01
2013-12-31,54.3,41.0,31.5,43.7,37.2,30.7,98,87,64,30.38,30.22,12,0,12,0.00
2014-1-1,43.7,36.7,30.6,39.7,35.1,29.9,98,94,85,30.48,30.38,4,0,4,0.00
2014-1-2,52.9,37.5,34.6,46.8,36.2,33.8,99,95,77,30.42,29.93,30,0,30,0.00